GW1942 Weather Reports


time (UTC)temp
C
wind
direction
speed
KPH
gust
KPH
rain 1hr
cm
rain 24hr
cm
rain mn
cm
humidity
%
barometer
mb
20260902223037 16 161 1.6 8.0 0.00 0.43 0.43 73 1006.2
20260902221538 17 161 0.0 3.2 0.00 0.43 0.43 69 1006.4
20260902220043 16 161 0.0 3.2 0.00 0.43 0.43 68 1006.4
20260902214538 16 161 0.0 1.6 0.00 0.43 0.43 72 1006.5
20260902213035 16 161 0.0 8.0 0.00 0.43 0.43 73 1006.6
20260902211534 15 161 3.2 9.7 0.00 0.43 0.43 80 1006.6
20260902210040 15 161 1.6 9.7 0.00 0.43 0.43 79 1006.8
20260902204541 15 161 3.2 8.0 0.13 0.43 0.43 85 1007.1
20260902203032 14 161 1.6 4.8 0.36 0.43 0.43 81 1006.8
20260902201533 14 161 0.0 3.2 0.43 0.43 0.43 83 1006.7
20260902200029 13 161 0.0 4.8 0.43 0.43 0.43 85 1006.5
20260902194526 13 161 0.0 12.9 0.30 0.30 0.30 83 1006.9
20260902193023 15 160 11.3 33.8 0.05 0.05 0.05 74 1007.1
20260902191523 18 161 6.4 14.5 0.00 0.00 0.00 53 1005.8
20260902190021 19 161 9.7 17.7 0.00 0.00 0.00 51 1005.0
20260902184519 20 162 4.8 14.5 0.00 0.00 0.00 51 1004.7
20260902183017 20 162 1.6 3.2 0.00 0.00 0.00 49 1004.6
20260902181518 19 162 3.2 8.0 0.00 0.00 0.00 49 1004.6
20260902180015 19 162 3.2 6.4 0.00 0.00 0.00 50 1004.6
20260902174511 18 162 0.0 6.4 0.00 0.00 0.00 51 1004.6
20260902173009 18 162 1.6 4.8 0.00 0.00 0.00 53 1004.6
20260902171505 17 162 0.0 1.6 0.00 0.00 0.00 55 1004.8
20260902170003 17 162 0.0 4.8 0.00 0.00 0.00 56 1004.8
20260902164501 16 162 1.6 4.8 0.00 0.00 0.00 57 1004.8
20260902163002 16 162 0.0 3.2 0.00 0.00 0.00 57 1004.5
20260902161603 16 162 0.0 1.6 0.00 0.00 0.00 59 1004.6
20260902160108 16 162 0.0 3.2 0.00 0.00 0.00 60 1004.7
20260902154612 15 162 0.0 1.6 0.00 0.00 0.00 64 1004.7
20260902153100 14 162 0.0 0.0 0.00 0.00 0.00 65 1004.8
20260902151612 13 162 0.0 3.2 0.00 0.00 0.00 67 1004.7
20260902150053 13 162 0.0 0.0 0.00 0.00 0.00 70 1004.8
20260902144551 12 162 0.0 0.0 0.00 0.00 0.00 73 1005.0
20260902143049 10 162 0.0 0.0 0.00 0.00 0.00 77 1005.0
20260902141546 9 162 0.0 0.0 0.00 0.00 0.00 80 1005.2
20260902140046 8 162 0.0 0.0 0.00 0.00 0.00 81 1005.2
20260902134543 7 162 0.0 0.0 0.00 0.00 0.00 83 1005.1
20260902133057 7 162 0.0 0.0 0.00 0.00 0.00 82 1005.0
20260902131544 8 162 0.0 0.0 0.00 0.00 0.00 81 1005.1
20260902130038 8 162 0.0 0.0 0.00 0.00 0.00 82 1005.1
20260902124536 8 162 0.0 1.6 0.00 0.00 0.00 79 1005.0
20260902123035 8 162 0.0 0.0 0.00 0.00 0.00 80 1005.0
20260902121533 8 162 0.0 0.0 0.00 0.00 0.00 78 1005.1
20260902120031 10 162 0.0 3.2 0.00 0.00 0.00 76 1005.3
20260902114529 9 162 0.0 0.0 0.00 0.00 0.00 78 1005.4
20260902113028 10 162 0.0 0.0 0.00 0.00 0.00 74 1005.6
20260902111526 9 162 0.0 0.0 0.00 0.00 0.00 79 1005.4
20260902110024 8 162 0.0 0.0 0.00 0.00 0.00 79 1005.7
20260902104521 9 162 0.0 0.0 0.00 0.00 0.00 76 1005.7
20260902103034 9 162 0.0 0.0 0.00 0.00 0.00 76 1005.7
20260902101528 10 162 0.0 0.0 0.00 0.00 0.00 74 1005.8
20260902100016 10 162 0.0 3.2 0.00 0.00 0.00 72 1005.7
20260902094514 10 162 0.0 1.6 0.00 0.00 0.00 74 1005.7
20260902093010 11 162 0.0 3.2 0.00 0.00 0.00 71 1005.9
20260902091507 12 162 1.6 3.2 0.00 0.00 0.00 68 1005.9
20260902090007 12 162 0.0 1.6 0.00 0.00 0.00 68 1006.1
20260902084505 12 162 0.0 1.6 0.00 0.00 0.00 69 1006.2
20260902083003 12 162 0.0 1.6 0.00 0.00 0.00 68 1005.9
20260902081615 12 162 0.0 1.6 0.00 0.00 0.00 68 1005.8
20260902080058 12 162 1.6 3.2 0.00 0.00 0.00 66 1006.1
20260902074557 13 162 0.0 3.2 0.00 0.00 0.00 63 1006.3
20260902073052 13 162 0.0 1.6 0.00 0.00 0.00 63 1006.4
20260902071601 13 162 0.0 3.2 0.00 0.00 0.00 62 1006.5
20260902070050 15 162 3.2 8.0 0.00 0.00 0.00 57 1006.6
20260902064555 15 162 1.6 6.4 0.00 0.00 0.00 58 1006.5
20260902063046 16 162 0.0 1.6 0.00 0.00 0.00 56 1006.6
20260902061548 16 161 0.0 3.2 0.00 0.00 0.00 53 1006.6
20260902060039 16 162 1.6 3.2 0.00 0.00 0.00 54 1006.6
20260902054540 18 162 0.0 9.7 0.00 0.00 0.00 47 1006.5
20260902053038 18 162 1.6 6.4 0.00 0.00 0.00 47 1006.5
20260902051539 18 162 0.0 1.6 0.00 0.00 0.00 50 1006.6
20260902050042 20 162 0.0 0.0 0.00 0.00 0.00 46 1006.4
20260902044546 20 162 0.0 1.6 0.00 0.00 0.00 45 1006.2
20260902043036 21 162 0.0 4.8 0.00 0.00 0.00 43 1006.2
20260902041534 21 162 1.6 4.8 0.00 0.00 0.00 41 1006.3
20260902040034 22 162 0.0 4.8 0.00 0.00 0.00 40 1006.3
20260902034538 22 162 1.6 9.7 0.00 0.00 0.00 40 1006.4
20260902033034 22 162 3.2 9.7 0.00 0.00 0.00 39 1006.3
20260902031533 21 162 1.6 6.4 0.00 0.00 0.00 42 1006.5
20260902030032 20 162 1.6 4.8 0.00 0.00 0.00 47 1006.3
20260902024532 21 162 0.0 4.8 0.00 0.00 0.00 42 1006.4
20260902023032 22 161 1.6 4.8 0.00 0.00 0.00 41 1006.3
20260902021545 22 162 3.2 6.4 0.00 0.00 0.00 41 1006.4
20260902020030 23 162 6.4 16.1 0.00 0.00 0.00 39 1006.2
20260902014538 24 162 4.8 11.3 0.00 0.00 0.00 33 1006.6
20260902013030 25 162 4.8 9.7 0.00 0.00 0.00 32 1006.3
20260902011529 25 162 8.0 14.5 0.00 0.00 0.00 30 1006.2
20260902010026 26 162 8.0 16.1 0.00 0.00 0.00 29 1005.7
20260902004528 26 161 11.3 20.9 0.00 0.00 0.00 28 1005.5
20260902003030 27 162 4.8 11.3 0.00 0.00 0.00 27 1005.0
20260902001525 27 161 6.4 17.7 0.00 0.00 0.00 26 1005.0
20260902000025 27 162 8.0 16.1 0.00 0.00 0.00 26 1005.0
20260901234524 28 162 8.0 14.5 0.00 0.00 0.00 25 1004.8
20260901233024 30 161 0.0 9.7 0.00 0.00 0.00 24 1004.4
20260901231523 30 161 1.6 4.8 0.00 0.00 0.00 22 1004.2
20260901230022 30 161 0.0 8.0 0.00 0.00 0.00 23 1004.0
20260901224523 30 162 1.6 4.8 0.00 0.00 0.00 22 1004.2